Von / Nach
Hinflug - Rückflug
Erwachsene / Kinder
Promocode
Nächste Ankünfte Flughafen St.Gallen-Altenrhein

ZeitErw.vonFlugInfo
13:3013:45PrevezaPE539
gelandet
13:3013:45KefaloniaPE539
gelandet
17:4017:40WienPE105
gelandet
Nächste Abflüge Flughafen St.Gallen-Altenrhein

ZeitGeplantnachFlugInfo
07:1007:26PrevezaPE538
abgeflogen
07:1007:26KefaloniaPE538
abgeflogen
14:5515:00WienPE104
abgeflogen

Flugplan

Bitte wählen Sie Ihren gewünschten Abflug- und Zielflughafen aus.


Live aus Altenrhein
LIVE
LSZR 251820Z 24008G21KT 200V300 9999 BKN040 10/05 Q1003 NOSIG RMK R
Zeitraffer heute
2020-09-25 00:14:06
LSZR 242150Z AUTO 27006G17KT 200V010 8000 RA FEW009 SCT011 BKN035 14/14 Q1006
Zeitraffer gestern
2020-09-24 00:14:49
LSZR 232150Z AUTO 19005KT 160V220 CAVOK 18/12 Q1009

Wien

Ab EUR 119.- pro Strecke.

 

Jetzt buchen

Ibiza

Ab EUR 279.- hin & zurück.

 

Jetzt buchen

Mallorca

Ab EUR 349.- hin & zurück.

 

Jetzt buchen

Pula

Ab EUR 399.- hin & zurück.

 

Jetzt buchen

Sardinien

Ab EUR 299.- hin & zurück.

 

Jetzt buchen

General Aviation

Business & General Aviation LSZR.

 

More information

 

 Shuttlebus


Nutzen Sie unseren

Shuttlebus zwischen Altenrhein

und Dornbirn & Bregenz.

 

Mehr dazu

 

People's Online-Shop


Von der Überraschung an

Bord über Badetücher bis

zum Flugzeugmodell.

 

Mehr dazu


News


Aktuelles von People's

und dem Flughafen

St.Gallen-Altenrhein.

 

Mehr dazu

 

Ad-hoc Charter


Chartern Sie eine unserer

Embraer170 für Ihren eigenen

Anlass oder ACMI-Einsätze.


Mehr dazu

  

 

Teile dein People's-Erlebnis mit uns:

 

#peoplesairline bei Instagram